Showing default

GHOST-5, 59130

Orbit data source: Space-Track

GHOST-5, 59130 is a payload satellite owned by Orbital Sidekick (US) in SSO that was launched on Mon, 04 Mar 2024 UTC via an FALCON 9 launch vehicle from the Air Force Western Test Range (AFWTR). Payload-class satellites include a variety of spacecraft equipped with specific instruments for various scientific and technological missions. These include communications satellites like Starlink; space stations such as the ISS; scientific satellites like the Hubble; Earth observation satellites from companies like Planet Labs, Umbra, and HawkEye 360; GPS; miniature CubeSats for education and research; and military/defense satellites.

Loading next visibility...
Identifier
59130, 2024-043AJ
Orbit
SSO
Country
Flag of USUS
Related business
Manufacturer
Astro Digital
Mission
Operational Commercial Imaging
Bus & Motor
CORVUS-XL, Unknown motor
Mass
85 kg wet, 85 kg dry
Launch date (UTC)
2024-03-04 (2 years ago)
Launch vehicle
FALCON 9
Launch site
Air Force Western Test Range (AFWTR)
Object type
Payload
Rocket body
Debris
Shape & HBR
Box + 1 Dish, 1.0 m
Radar Cross Section
0.425 m², Medium (>0.1 m² and < 1m²)

Expand to show TLE details & history
Last TLE update: 9 hours ago

TLE from 9 hours ago
0 GHOST-5
1 59130U 24043AJ  25258.31012079  .00021836  00000-0  67789-3 0  9996
2 59130  97.5249  30.0873 0010446 120.4840 239.7435 15.33343423 85255
Epoch: 2025-09-15T07:26Z
TLE epoch observation values (Epoch: 2025-09-15T07:26:34.436Z)
Latitude
-0°
Longitude
-76.0728°
Altitude
472.559 km
Speed
7.628 km/s
True Right ascension
02h 00m 20s
True Declination
0° 00' 00"
Sunlit
Object was in full shadow at epoch
Visualization orbit readout
Latitude
Unknown
Longitude
Unknown
Altitude
Unknown
Speed
Unknown
Apparent Right ascension
Unknown
Apparent Declination
Unknown
Sunlit
N/A
Visualization observer readout
Local Sidereal Time
08:42:08
Azimuth
Unknown
Elevation
Unknown
Doppler factor
Unknown
Orbital elements
Apogee altitude
469.945 km
Perigee altitude
455.653 km
Semi-major axis
6,840.936 km
Eccentricity
0.00104
Inclination
97.5249°
RAAN
30.0873°
Arg. of periapsis
120.484°
True anomaly
239.64017°
Mean anomaly
239.7435°
Eccentric anomaly
239.69183°
Mean motion
3.83592 °/min
Orbital period
93.85 mins
BSTAR
0.00067789
Loading maneuver chart data...
Computing Atmospheric mass density...
Loading historical data...
Loading historical data...
Loading historical data...
Loading historical data...
Loading historical data...
Loading historical data...
Loading historical data...

Documentation

Showing up to 5 results
|